Location: Nelson
(41.2830°S, 173.2830°E)
Time: 12:50:31
(UTC+13:00)

Cosmos 1386 Rocket - Pass Details

Date: 24 January 2019
Orbit: 930 x 1005 km, 83.0° (Epoch: 19 February)

Event Time Altitude Azimuth Distance (km) Brightness Sun altitude
Exits shadow 23:09:17 28° 360° (N) 1,729 5.4 -20.3°
Maximum altitude 23:12:46 82° 85° (E) 973 4.4 -20.7°
Drops below altitude 10° 23:18:55 10° 171° (S) 2,688 7.4 -21.3°
Sets 23:21:24 0° 171° (S) 3,632 8.2 -21.6°
